Regional Weather Roundup
Issued by NWS Bismarck, ND

Home | Current Version | Previous Version | Text Only | Print | Product List | Glossary On
Versions: 1 2 3 4 5 6 7 8 9 10 11 12 13 14 15 16 17 18 19 20 21 22 23 24 25 26 27 28 29 30 31 32 33 34 35 36 37 38 39 40 41 42 43 44 45 46 47 48 49 50
000
ASUS43 KBIS 231702
RWRBIS

NWR BROADCAST TEXT
NATIONAL WEATHER SERVICE BISMARCK ND
1100 AM CST TUE JAN 23 2018

NOTE: "FAIR" INDICATES FEW OR NO CLOUDS BELOW 12,000 FEET WITH NO
SIGNIFICANT WEATHER AND/OR OBSTRUCTIONS TO VISIBILITY.


CITY           SKY/WX    TMP DP  RH WIND       PRES   REMARKS
WILLISTON      FAIR      20  14  77 SW8       30.12R WCI  10
MINOT          CLOUDY    19  15  84 NW15      30.07R FOG     WCI   5
MINOT AFB      CLOUDY    18  16  91 NW17      30.06R WCI   2
BISMARCK       FAIR      21  18  88 CALM      30.10R
DICKINSON      FAIR      29  20  69 W15       30.07R WCI  18
GARRISON         N/A     24  21  88 NW9       30.07R WCI  14
HETTINGER ARPT PTSUNNY   30  20  66 W18       30.10R WCI  18
JAMESTOWN      CLOUDY    21  19  92 W6        30.05R WCI  13
CARRINGTON     FAIR      21  21 100 W10       30.06R WCI  10
HAZEN            N/A     19  19 100 SW7       30.10R WCI  10
LINTON           N/A     21  21 100 NW6       30.10R WCI  14
MANDAN         FAIR      25  25 100 NW12      30.08R WCI  14
OAKES            N/A     19  19 100 SW6       30.10R WCI  11
RUGBY          CLOUDY    16  14  93 NW14      30.04R FOG     WCI   1
STANLEY        FOG       14  16 100 NW9G17    30.08R VSB 1   WCI   2
TIOGA          FOG       12  12 100 W6        30.09R VSB 1/4 WCI   3
WATFORD CITY   FAIR      23  18  80 SW6       30.10R WCI  16
$$

CITY           SKY/WX    TMP DP  RH WIND       PRES   REMARKS
GRAND FORKS    FLURRIES  22  18  85 SW12      30.09S WCI  10
GRAND FORKS AF CLOUDY    21  18  88 SW6       30.08S WCI  13
DEVILS LAKE    CLOUDY    19  17  92 W9        30.05R FOG     WCI   8
FARGO          CLOUDY    21  17  84 CALM      30.12R
CANDO          FOG       19  19 100 NW7       30.05R VSB 3/4 WCI  10
CAVALIER         N/A     21  21 100 S7        30.08R WCI  13
GRAFTON        CLOUDY    19  18  93 SE9       30.11R WCI   9
GWINNER          N/A     19  19 100 SW6       30.10R FOG     WCI  11
LANGDON        FOG       21  21 100 W13       30.02R VSB 3/4 WCI   9
ROLLA          CLOUDY    18  18 100 N16       30.02R FOG     WCI   3
WALHALLA       FAIR      21  21 100 SW7       30.07R WCI  13
$$

CITY           SKY/WX    TMP DP  RH WIND       PRES   REMARKS
ABERDEEN       CLOUDY    23  20  88 SW7       30.11R FOG     WCI  15
MOBRIDGE       PTSUNNY   27  23  85 NW8       30.06R WCI  19
BUFFALO          N/A     31  20  63 W15       30.06R
RAPID CITY     SUNNY     40  19  43 NW17      30.15R
GLASGOW        PTSUNNY   13  10  88 NW6       30.13R FOG     WCI   4
SIDNEY         SUNNY     28  20  71 W6        30.13R
WOLF POINT     PTSUNNY   17  13  84 SW8       30.14S WCI   7
GLENDIVE       SUNNY     29  21  72 NW15      30.12R WCI  18
MILES CITY     MOSUNNY   24  18  77 W6        30.18R WCI  17
BAKER          SUNNY     25  17  72 W3        30.14R
$$

CITY           SKY/WX    TMP DP  RH WIND       PRES   REMARKS
BILLINGS       MOSUNNY   30  16  56 SW8       30.22R
GREAT FALLS    MOSUNNY   32  16  51 SW16      30.15R
$$





USA.gov is the U.S. government's official web portal to all federal, state and local government web resources and services.